Regional Weather Roundup
Issued by NWS

Home | Current Version | Previous Version | Graphics & Text | Print | Product List | Glossary On
Versions: 1 2 3 4 5 6 7 8 9 10 11 12 13 14 15 16 17 18 19 20 21 22 23 24 25 26 27 28 29 30 31 32 33 34 35 36 37 38 39 40 41 42 43 44 45 46 47 48 49
000
ASUS45 KBOI 260010
RWRID
WEATHER ROUNDUP FOR IDAHO
NATIONAL WEATHER SERVICE BOISE ID
500 PM MST TUE NOV 25 2014

NOTE: "FAIR" INDICATES FEW OR NO CLOUDS BELOW 12000 FEET
WITH NO SIGNIFICANT WEATHER AND/OR OBSTRUCTIONS TO VISIBILITY

IDZ012-014-260100-
SOUTHWEST IDAHO


CITY           SKY/WX    TMP DP  RH WIND       PRES   REMARKS
BOISE          CLOUDY    52  42  69 NW5       30.25S
CALDWELL       NOT AVBL
MOUNTAIN HOME  MOCLDY    54  43  66 W16       30.24S
$$

IDZ016-017-260100-
SOUTHCENTRAL IDAHO


CITY           SKY/WX    TMP DP  RH WIND       PRES   REMARKS
BURLEY         CLOUDY    51  38  60 W16G24    30.20R
JEROME         CLOUDY    51  39  63 W24G35    30.21F
TWIN FALLS     CLOUDY    54  37  52 SW23G32   30.23R
$$

IDZ019>023-260100-
SOUTHEAST IDAHO


CITY           SKY/WX    TMP DP  RH WIND       PRES   REMARKS
IDAHO FALLS    MOCLDY    44  38  79 S15       30.08S
POCATELLO      MOCLDY    48  41  76 SW31G43   30.12F
REXBURG        CLOUDY    42  36  79 S10       30.07R
$$

IDZ006-010-011-018-031-032-260100-
CENTRAL IDAHO MOUNTAINS


CITY           SKY/WX    TMP DP  RH WIND       PRES   REMARKS
MCCALL         LGT RAIN  34  33  96 N5        30.20R FOG     WCI  30
HAILEY         MOCLDY    50  34  53 NW12G23   30.11F
STANLEY          N/A     40  32  73 VRB5      30.20R
SALMON         MOCLDY    36  34  93 N3        30.11F
CHALLIS        CLOUDY    38  34  85 CALM      30.09S
$$

IDZ002-004-006-007-026-260100-
NORTHERN IDAHO


CITY           SKY/WX    TMP DP  RH WIND       PRES   REMARKS
LEWISTON       RAIN      45  44  97 CALM      30.17S FOG
LOWELL           N/A     36  35  96 NW5       30.22R WCI  32
COEUR D`ALENE  CLOUDY    37  32  81 CALM      30.19S
MULLAN PASS    LGT SNOW  28  24  85 CALM      30.09S VSB 1
$$



USA.gov is the U.S. government's official web portal to all federal, state and local government web resources and services.